This demonstration page uses our WeatherBlox Daily Observations layout. Learn more.

Left ArrowRight Arrow

Hourly Observations for November 24, 2019

Temp ( °F °C ) Dew Point ( °F °C ) Humidity (%) Winds ( mph kmh ) Pressure ( in mb ) Visibility ( mi km ) Precip ( " mm )
12:53 am 00:53 Mostly Cloudy 45 7.2 37 2.8 74 74 W 8 13 29.86 1011 10 16 0.00 0.00
1:53 am 01:53 Cloudy 46 7.8 37 2.8 71 71 W 14 22 29.86 1011 10 16 0.00 0.00
2:31 am 02:31 Cloudy 46 7.8 37 2.8 71 71 WNW 12 19 29.89 1012 10 16 0.00 0.00
2:53 am 02:53 Cloudy 46 7.8 37 2.8 71 71 WNW 14 22 29.86 1011 10 16 0.00 0.00
3:53 am 03:53 Cloudy 46 7.8 37 2.8 71 71 NW 10 17 29.86 1011 10 16 0.00 0.00
4:53 am 04:53 Cloudy 45 7.2 35 1.7 68 68 NW 15 24 29.86 1011 10 16 0.00 0.00
5:53 am 05:53 Cloudy 45 7.2 36 2.2 71 71 NW 8 13 29.88 1012 10 16 0.00 0.00
6:53 am 06:53 Cloudy 44 6.7 35 1.7 71 71 NW 13 20 29.89 1012 10 16 0.00 0.00
7:53 am 07:53 Cloudy 44 6.7 35 1.7 71 71 WNW 10 17 29.92 1013 10 16 0.00 0.00
8:53 am 08:53 Cloudy 44 6.7 35 1.7 71 71 NNW 13 20 29.94 1014 10 16 0.00 0.00
9:53 am 09:53 Mostly Cloudy 46 7.8 36 2.2 68 68 NW 7 11 29.94 1014 10 16 0.00 0.00
10:53 am 10:53 Mostly Cloudy 47 8.3 36 2.2 66 66 NW 13 20 29.95 1014 10 16 0.00 0.00
11:13 am 11:13 Partly Cloudy 48 8.9 36 2.2 63 63 NNW 12 19 29.94 1014 10 16 0.00 0.00
11:53 am 11:53 Sunny 49 9.4 36 2.2 61 61 WNW 9 15 29.92 1013 10 16 0.00 0.00
12:53 pm 12:53 Sunny 50 10 36 2.2 59 59 WNW 8 13 29.90 1013 10 16 0.00 0.00
1:53 pm 13:53 Sunny 52 11.1 37 2.8 57 57 W 12 19 29.88 1012 10 16 0.00 0.00
2:53 pm 14:53 Sunny 52 11.1 37 2.8 57 57 NW 8 13 29.87 1011 10 16 0.00 0.00
3:53 pm 15:53 Sunny 53 11.7 37 2.8 55 55 WNW 9 15 29.88 1012 10 16 0.00 0.00
4:53 pm 16:53 Sunny 52 11.1 36 2.2 55 55 WNW 9 15 29.88 1012 10 16 0.00 0.00
5:53 pm 17:53 Clear 48 8.9 36 2.2 63 63 NW 3 6 29.89 1012 10 16 0.00 0.00
6:53 pm 18:53 Clear 47 8.3 37 2.8 69 69 Calm 29.90 1013 10 16 0.00 0.00
7:53 pm 19:53 Clear 44 6.7 37 2.8 76 76 Calm 29.89 1012 10 16 0.00 0.00
8:53 pm 20:53 Clear 41 5 37 2.8 86 86 Calm 29.90 1013 10 16 0.00 0.00
9:53 pm 21:53 Clear 39 3.9 36 2.2 89 89 Calm 29.91 1013 10 16 0.00 0.00
10:53 pm 22:53 Clear 39 3.9 36 2.2 89 89 Calm 29.91 1013 10 16 0.00 0.00
11:53 pm 23:53 Clear 38 3.3 36 2.2 93 93 Calm 29.91 1013 10 16 0.00 0.00

Powered by AerisWeather